Weather in Malayer

Iran     34°17′19″N   48°49′16″E
temp.,
°C
wind,
m/s
gust,
m/s
humid.,
%
clouds,
%
prec.,
mm/h
press.,
hPa
HPBL,
m
7 may, fri
fri701:30+14s3537100 0.0 101281
04:30+13s334098 0.0 101245
07:30+13s4642100 0.0 1012167
10:30+21ssw571832 0.0 10112165
13:30+23ssw791836 0.0 10093109
16:30+23sw10112099 0.0 10093429
19:30+20sw6112642 0.0 10111467
22:30+16ssw34285 0.0 101381
8 may, sat
sat801:30+13s11355 0.0 101311
04:30+12ese223620 0.0 101311
07:30+14se22373 0.0 101444
10:30+21ssw48211 0.0 10122783
13:30+24sw771699 0.0 10104462
16:30+24sw1091693 0.0 10093727
19:30+20wsw47251 0.0 1010169
22:30+16ene233675 0.0 1013109
9 may, sun
sun901:30+13ese11475 0.0 101311
04:30+11s22462 0.0 101310
07:30+14sse11470 0.0 101544
10:30+20wsw12300 0.0 10121611
13:30+24wnw23204 0.0 10103066
16:30+25w451819 0.0 10083340
19:30+22w352422 0.0 1009111
22:30+16s34380 0.0 101243
10 may, mon
mon1001:30+15ssw22370 0.0 101213
04:30+13sse22400 0.0 101411
07:30+16s22365 0.0 101430
10:30+22nw11235 0.0 10131500
13:30+25w341522 0.0 10113507
16:30+26w56148 0.0 10093818
19:30+19nw363547 0.3 1015785
22:30+15se22425 0.2 101511
11 may, tue
tue1101:30+14se224715 0.0 101617
04:30+13sse334922 0.0 101620
07:30+15s234612 0.0 1016101
10:30+22s55275 0.0 1014989
13:30+25sw261884 0.1 10123096
16:30+24s10102378 0.1 10111423
19:30+19se453599 0.3 1014223
22:30+16s1140100 0.3 101411